Time,TemperatureF,DewpointF,PressureIn,WindDirection,WindDirectionDegrees,WindSpeedMPH,WindSpeedGustMPH,Humidity,HourlyPrecipIn,Conditions,Clouds,dailyrainin,SoftwareType,DateUTC
2016-12-03 01:00:00,78.0,-99.9,-100.00,NE,50,16.0,18.0,-999,-99.99,,,-99.99,,2016-12-03 06:00:00,
2016-12-03 01:37:00,78.0,-99.9,-100.00,NE,50,16.0,18.0,-999,-99.99,,,-99.99,,2016-12-03 06:37:00,
2016-12-03 01:51:00,78.0,-99.9,-100.00,NE,50,16.0,18.0,-999,-99.99,,,-99.99,,2016-12-03 06:51:00,
2016-12-03 01:59:00,78.0,-99.9,-100.00,NE,50,16.0,18.0,-999,-99.99,,,-99.99,,2016-12-03 06:59:00,
2016-12-03 02:00:00,77.0,-99.9,-100.00,NE,50,20.0,22.0,-999,-99.99,,,-99.99,,2016-12-03 07:00:00,
2016-12-03 02:40:00,77.0,-99.9,-100.00,NE,50,20.0,22.0,-999,-99.99,,,-99.99,,2016-12-03 07:40:00,
2016-12-03 02:48:00,77.0,-99.9,-100.00,NE,50,20.0,22.0,-999,-99.99,,,-99.99,,2016-12-03 07:48:00,
2016-12-03 03:00:00,77.0,-99.9,-100.00,ENE,70,20.0,22.0,-999,-99.99,,,-99.99,,2016-12-03 08:00:00,
2016-12-03 03:38:00,77.0,-99.9,-100.00,ENE,70,20.0,22.0,-999,-99.99,,,-99.99,,2016-12-03 08:38:00,
2016-12-03 03:51:00,77.0,-99.9,-100.00,ENE,70,20.0,22.0,-999,-99.99,,,-99.99,,2016-12-03 08:51:00,
2016-12-03 03:58:00,77.0,-99.9,-100.00,ENE,70,20.0,22.0,-999,-99.99,,,-99.99,,2016-12-03 08:58:00,
2016-12-03 04:00:00,78.0,-99.9,-100.00,East,80,20.0,21.0,-999,-99.99,,,-99.99,,2016-12-03 09:00:00,
2016-12-03 04:34:00,78.0,-99.9,-100.00,East,80,20.0,21.0,-999,-99.99,,,-99.99,,2016-12-03 09:34:00,
2016-12-03 04:44:00,78.0,-99.9,-100.00,East,80,20.0,21.0,-999,-99.99,,,-99.99,,2016-12-03 09:44:00,
2016-12-03 05:00:00,78.0,-99.9,-100.00,ENE,70,20.0,22.0,-999,-99.99,,,-99.99,,2016-12-03 10:00:00,
2016-12-03 05:44:00,78.0,-99.9,-100.00,ENE,70,20.0,22.0,-999,-99.99,,,-99.99,,2016-12-03 10:44:00,
2016-12-03 05:54:00,78.0,-99.9,-100.00,ENE,70,20.0,22.0,-999,-99.99,,,-99.99,,2016-12-03 10:54:00,
2016-12-03 06:00:00,77.0,-99.9,-100.00,ENE,70,20.0,22.0,-999,-99.99,,,-99.99,,2016-12-03 11:00:00,
2016-12-03 06:34:00,77.0,-99.9,-100.00,ENE,70,20.0,22.0,-999,-99.99,,,-99.99,,2016-12-03 11:34:00,
2016-12-03 06:44:00,77.0,-99.9,-100.00,ENE,70,20.0,22.0,-999,-99.99,,,-99.99,,2016-12-03 11:44:00,
2016-12-03 06:57:00,77.0,-99.9,-100.00,ENE,70,20.0,22.0,-999,-99.99,,,-99.99,,2016-12-03 11:57:00,
2016-12-03 07:00:00,77.0,-99.9,-100.00,ENE,70,20.0,22.0,-999,-99.99,,,-99.99,,2016-12-03 12:00:00,
2016-12-03 07:38:00,77.0,-99.9,-100.00,ENE,70,20.0,22.0,-999,-99.99,,,-99.99,,2016-12-03 12:38:00,
2016-12-03 07:51:00,77.0,-99.9,-100.00,ENE,70,20.0,22.0,-999,-99.99,,,-99.99,,2016-12-03 12:51:00,
2016-12-03 07:58:00,77.0,-99.9,-100.00,ENE,70,20.0,22.0,-999,-99.99,,,-99.99,,2016-12-03 12:58:00,
2016-12-03 08:00:00,77.0,-99.9,-100.00,ENE,60,24.0,26.0,-999,-99.99,,,-99.99,,2016-12-03 13:00:00,
2016-12-03 08:51:00,77.0,-99.9,-100.00,ENE,60,24.0,26.0,-999,-99.99,,,-99.99,,2016-12-03 13:51:00,
2016-12-03 08:58:00,77.0,-99.9,-100.00,ENE,60,24.0,26.0,-999,-99.99,,,-99.99,,2016-12-03 13:58:00,
2016-12-03 09:00:00,77.0,-99.9,-100.00,ENE,70,22.0,24.0,-999,-99.99,,,-99.99,,2016-12-03 14:00:00,
2016-12-03 09:52:00,77.0,-99.9,-100.00,ENE,70,22.0,24.0,-999,-99.99,,,-99.99,,2016-12-03 14:52:00,
2016-12-03 10:00:00,77.0,-99.9,-100.00,ENE,70,23.0,25.0,-999,-99.99,,,-99.99,,2016-12-03 15:00:00,
2016-12-03 10:34:00,77.0,-99.9,-100.00,ENE,70,23.0,25.0,-999,-99.99,,,-99.99,,2016-12-03 15:34:00,
2016-12-03 10:44:00,77.0,-99.9,-100.00,ENE,70,23.0,25.0,-999,-99.99,,,-99.99,,2016-12-03 15:44:00,
2016-12-03 10:54:00,77.0,-99.9,-100.00,ENE,70,23.0,25.0,-999,-99.99,,,-99.99,,2016-12-03 15:54:00,
2016-12-03 11:00:00,77.0,-99.9,-100.00,ENE,70,23.0,25.0,-999,-99.99,,,-99.99,,2016-12-03 16:00:00,
2016-12-03 11:36:00,77.0,-99.9,-100.00,ENE,70,23.0,-999.0,-999,-99.99,,,-99.99,,2016-12-03 16:36:00,
2016-12-03 11:57:00,77.0,-99.9,-100.00,ENE,70,23.0,-999.0,-999,-99.99,,,-99.99,,2016-12-03 16:57:00,
2016-12-03 12:00:00,77.0,-99.9,-100.00,ENE,70,21.0,23.0,-999,-99.99,,,-99.99,,2016-12-03 17:00:00,
2016-12-03 12:34:00,77.0,-99.9,-100.00,ENE,70,21.0,23.0,-999,-99.99,,,-99.99,,2016-12-03 17:34:00,
2016-12-03 12:44:00,77.0,-99.9,-100.00,ENE,70,21.0,23.0,-999,-99.99,,,-99.99,,2016-12-03 17:44:00,
2016-12-03 12:59:00,77.0,-99.9,-100.00,ENE,70,21.0,23.0,-999,-99.99,,,-99.99,,2016-12-03 17:59:00,
2016-12-03 13:00:00,77.0,-99.9,-100.00,East,80,20.0,21.0,-999,-99.99,,,-99.99,,2016-12-03 18:00:00,
2016-12-03 13:36:00,77.0,-99.9,-100.00,East,80,20.0,21.0,-999,-99.99,,,-99.99,,2016-12-03 18:36:00,
2016-12-03 13:50:00,77.0,-99.9,-100.00,East,80,20.0,21.0,-999,-99.99,,,-99.99,,2016-12-03 18:50:00,
2016-12-03 14:00:00,77.0,-99.9,-100.00,East,80,16.0,18.0,-999,-99.99,,,-99.99,,2016-12-03 19:00:00,
2016-12-03 14:38:00,77.0,-99.9,-100.00,East,80,16.0,18.0,-999,-99.99,,,-99.99,,2016-12-03 19:38:00,
2016-12-03 14:49:00,77.0,-99.9,-100.00,East,80,16.0,18.0,-999,-99.99,,,-99.99,,2016-12-03 19:49:00,
2016-12-03 15:00:00,77.0,-99.9,-100.00,East,80,15.0,16.0,-999,-99.99,,,-99.99,,2016-12-03 20:00:00,
2016-12-03 15:36:00,77.0,-99.9,-100.00,East,80,15.0,-999.0,-999,-99.99,,,-99.99,,2016-12-03 20:36:00,
2016-12-03 15:47:00,77.0,-99.9,-100.00,East,80,15.0,16.0,-999,-99.99,,,-99.99,,2016-12-03 20:47:00,
2016-12-03 15:58:00,77.0,-99.9,-100.00,East,80,15.0,16.0,-999,-99.99,,,-99.99,,2016-12-03 20:58:00,